RYR3YV LIBR-EPWR

Flight info

Callsign RYR3YV
Flight time N/A
Altitude 38000
Route TROTA DCT CRAYE DCT BEVIS DCT GEBNI DCT VEBAL DCT MAKAL DCT SOPAV DCT REGLI L617 EPOPA
Aircraft B38M/M-SDE1FGHILORVWXY/HB1

Departure

Time 2026-04-17 22:58
Airport Brindisi Airport (LIBR)

Arrival

Time N/A
Airport Copernicus Wrocław Airport (EPWR)
Time Latitude Longitude Altitude Speed Heading
2026-04-17 22:12 40.65756 17.94021 42 ft 0 kts 322°
2026-04-17 22:46 40.65745 17.94032 42 ft 2 kts 322°
2026-04-17 22:46 40.65733 17.94044 42 ft 2 kts 322°
2026-04-17 22:46 40.65721 17.94056 42 ft 2 kts 322°
2026-04-17 22:47 40.65709 17.94068 42 ft 2 kts 322°
2026-04-17 22:47 40.65698 17.94080 42 ft 2 kts 322°
2026-04-17 22:47 40.65684 17.94088 42 ft 2 kts
2026-04-17 22:47 40.65669 17.94083 42 ft 2 kts 35°
2026-04-17 22:48 40.65663 17.94076 42 ft 1 kts 53°
2026-04-17 22:48 40.65659 17.94069 42 ft 0 kts 53°
2026-04-17 22:52 40.65662 17.94074 42 ft 1 kts 53°
2026-04-17 22:52 40.65673 17.94092 42 ft 3 kts 53°
2026-04-17 22:52 40.65691 17.94123 41 ft 4 kts 52°
2026-04-17 22:53 40.65712 17.94159 41 ft 5 kts 52°
2026-04-17 22:53 40.65734 17.94196 40 ft 5 kts 51°
2026-04-17 22:53 40.65758 17.94236 39 ft 5 kts 51°
2026-04-17 22:53 40.65785 17.94280 39 ft 8 kts 53°
2026-04-17 22:54 40.65832 17.94363 37 ft 12 kts 53°
2026-04-17 22:54 40.65884 17.94453 36 ft 12 kts 52°
2026-04-17 22:54 40.65937 17.94541 35 ft 12 kts 53°
2026-04-17 22:54 40.65992 17.94638 34 ft 13 kts 52°
2026-04-17 22:55 40.66025 17.94742 33 ft 11 kts 116°
2026-04-17 22:55 40.65976 17.94816 32 ft 10 kts 137°
2026-04-17 22:55 40.65918 17.94886 32 ft 14 kts 137°
2026-04-17 22:55 40.65826 17.94996 31 ft 18 kts 137°
2026-04-17 22:56 40.65738 17.95105 31 ft 16 kts 137°
2026-04-17 22:56 40.65650 17.95131 31 ft 12 kts 222°
2026-04-17 22:56 40.65601 17.95059 32 ft 9 kts 229°
2026-04-17 22:56 40.65581 17.95008 33 ft 4 kts 287°
2026-04-17 22:57 40.65602 17.94977 33 ft 4 kts 316°
2026-04-17 22:57 40.65665 17.94900 33 ft 31 kts 317°
2026-04-17 22:57 40.65966 17.94531 35 ft 84 kts 317°
2026-04-17 22:57 40.66511 17.93867 34 ft 127 kts 317°
2026-04-17 22:58 40.67246 17.92970 35 ft 158 kts 316°
2026-04-17 22:58 40.68131 17.91896 205 ft 186 kts 320°
2026-04-17 22:58 40.69107 17.90795 1045 ft 186 kts 323°
2026-04-17 22:58 40.70092 17.89706 1867 ft 193 kts 326°
2026-04-17 22:59 40.71122 17.88531 2324 ft 200 kts 323°
2026-04-17 22:59 40.72269 17.87449 2505 ft 206 kts 344°
2026-04-17 22:59 40.73686 17.87338 2741 ft 209 kts 17°
2026-04-17 22:59 40.74987 17.88240 3082 ft 216 kts 40°
2026-04-17 23:00 40.75918 17.89787 3556 ft 219 kts 57°
2026-04-17 23:00 40.76667 17.91524 4122 ft 216 kts 56°
2026-04-17 23:00 40.77458 17.93212 4572 ft 218 kts 54°